Погода в Тлюстенхабле

Россия / Республика Адыгея     44°58′55″N   39°05′47″E
темп.,
°C
ветер,
м/с
пор.,
м/с
влажн.,
%
обл.,
%
осадки,
мм/ч
давл.,
гПа
погр.,
м
5 августа, чт
чт500:00+25св24570 0.0 1014107
03:00+23вюв12680 0.0 1014106
06:00+23юв12725 0.0 1014128
09:00+28в355261 0.0 1014736
12:00+34в34330 0.0 10121735
15:00+37в12255 0.0 10102826
18:00+37в02222 0.0 10093084
21:00+30юв37440 0.0 1009326
6 августа, пт
пт600:00+27в37540 0.0 1009310
03:00+25ююв23620 0.0 1008164
06:00+25юв11610 0.0 100865
09:00+31ю33530 0.0 1007848
12:00+36вюв32340 0.0 10051807
15:00+39в3225100 0.0 10032175
18:00+38юв022295 0.0 10011028
21:00+30зсз364594 0.0 1002181
7 августа, сб
сб700:00+27зсз235838 0.0 100283
03:00+25зсз3467100 0.0 1002142
06:00+25з116698 0.0 100388
09:00+31ссв2245100 0.0 1003581
12:00+31всв5637100 0.1 1003442
15:00+37вюв332499 0.1 10021263
18:00+36вюв2425100 0.0 10021076
21:00+26ююв3665100 0.9 1005114
8 августа, вс
вс800:00+25ююз3471100 0.8 1006103
03:00+26ююз51274100 0.8 1007547
06:00+27зюз2772100 0.0 1008352
09:00+28вюв245495 0.2 1009445
12:00+29з2353100 0.3 1010460
15:00+31юз5639100 0.4 1010822
18:00+29зсз246197 0.6 1011231
21:00+25ю23765 1.4 101381
9 августа, пн
пн900:00+24юз33726 0.0 1012115
03:00+23юз24730 0.0 1012120
06:00+23юз25710 0.0 1013122
09:00+30з45470 0.0 1013812
12:00+35зсз34290 0.0 10122790
15:00+37сз56205 0.0 10113336
18:00+35зсз65240 0.0 10111688
21:00+29зсз49410 0.0 1013317